Weather History for Coatesville, PA

Change the Weather History Date:

Monday, March 18, 2013

  Actual Average (KLNS) Record (KLNS)
Temperature  
Mean Temperature 32 °F -  
Max Temperature 35 °F 53 °F 78 °F (1989)
Min Temperature 30 °F 31 °F 13 °F (1993)
Degree Days  
Heating Degree Days 32    
Moisture  
Dew Point 24 °F    
Average Humidity 72    
Maximum Humidity 100    
Minimum Humidity 44    
Precipitation  
Precipitation 0.58 in - - ()
Sea Level Pressure  
Sea Level Pressure 30.19 in    
Wind  
Wind Speed 6 mph (East)    
Max Wind Speed 20 mph    
Max Gust Speed 28 mph    
Visibility 7 miles    
Events Rain , Snow    
Averages and records for this station are not official NWS values.
T = Trace of Precipitation, MM = Missing Value Source: NWS Daily Summary

Daily Weather History Graph

Daily Weather History Graph

Search for Another Location

Airport:

Trip Planner

Search our weather history database for the weather conditions in past years. The results will help you decide how hot, cold, wet, or windy it might be!

Date:

Astronomy

Mar. 18, 2013 Rise Set
Actual Time 7:09 AM EDT 7:13 PM EDT
Civil Twilight 6:42 AM EDT 7:40 PM EDT
Nautical Twilight 6:11 AM EDT 8:12 PM EDT
Astronomical Twilight 5:39 AM EDT 8:44 PM EDT
Moon 11:07 AM EDT (3/18) 1:10 AM EDT (3/18)
Length of Visible Light 12h 57m
Length of Day
12h 03m
Waxing Crescent, 40% of the Moon is Illuminated
Mar 18
Waxing Crescent
Mar 19
First Quarter
Mar 27
Full
Apr 3
Last Quarter
Apr 10
New

Hourly Weather History & Observations

Time (EDT) Temp. Windchill Dew Point Humidity Pressure Visibility Wind Dir Wind Speed Gust Speed Precip Events Conditions
12:15 AM 32.0 °F - 21.2 °F 64% 30.28 in 10.0 mi Calm Calm - N/A   Clear
12:35 AM 32.0 °F - 21.2 °F 64% 30.28 in 10.0 mi Calm Calm - N/A   Clear
12:55 AM 32.0 °F - 21.2 °F 64% 30.28 in 10.0 mi Calm Calm - N/A   Clear
1:15 AM 32.0 °F 28.7 °F 21.2 °F 64% 30.28 in 10.0 mi NNE 3.5 mph - N/A   Clear
1:35 AM 32.0 °F - 19.4 °F 60% 30.30 in 10.0 mi Calm Calm - N/A   Partly Cloudy
1:55 AM 32.0 °F - 19.4 °F 60% 30.30 in 10.0 mi Calm Calm - N/A   Clear
2:15 AM 32.0 °F - 19.4 °F 60% 30.31 in 10.0 mi Calm Calm - N/A   Scattered Clouds
2:35 AM 32.0 °F - 19.4 °F 60% 30.31 in 10.0 mi Calm Calm - N/A   Overcast
2:55 AM 32.0 °F - 19.4 °F 60% 30.31 in 10.0 mi Calm Calm - N/A   Mostly Cloudy
3:15 AM 32.0 °F - 19.4 °F 60% 30.31 in 10.0 mi Calm Calm - N/A   Scattered Clouds
3:35 AM 32.0 °F - 19.4 °F 60% 30.32 in 10.0 mi Calm Calm - N/A   Partly Cloudy
3:55 AM 32.0 °F - 19.4 °F 60% 30.31 in 10.0 mi Calm Calm - N/A   Clear
4:15 AM 32.0 °F 27.5 °F 19.4 °F 60% 30.31 in 10.0 mi NE 4.6 mph - N/A   Partly Cloudy
4:35 AM 32.0 °F 28.7 °F 17.6 °F 55% 30.31 in 10.0 mi NE 3.5 mph - N/A   Partly Cloudy
4:55 AM 32.0 °F 28.7 °F 17.6 °F 55% 30.31 in 10.0 mi NE 3.5 mph - N/A   Clear
5:15 AM 30.2 °F 26.7 °F 17.6 °F 60% 30.31 in 10.0 mi NE 3.5 mph - N/A   Clear
5:35 AM 30.2 °F 23.4 °F 15.8 °F 55% 30.32 in 10.0 mi ENE 6.9 mph - N/A   Clear
5:55 AM 30.2 °F 24.3 °F 14.0 °F 51% 30.33 in 10.0 mi ENE 5.8 mph - N/A   Clear
6:15 AM 30.2 °F 26.7 °F 14.0 °F 51% 30.33 in 10.0 mi ENE 3.5 mph - N/A   Clear
6:35 AM 30.2 °F 24.3 °F 14.0 °F 51% 30.34 in 10.0 mi ENE 5.8 mph - N/A   Clear
6:55 AM 30.2 °F 22.6 °F 14.0 °F 51% 30.34 in 10.0 mi ENE 8.1 mph - N/A   Clear
7:15 AM 30.2 °F 26.7 °F 14.0 °F 51% 30.35 in 10.0 mi ENE 3.5 mph - N/A   Clear
7:35 AM 30.2 °F 21.3 °F 14.0 °F 51% 30.34 in 10.0 mi East 10.4 mph 16.1 mph N/A   Clear
7:55 AM 32.0 °F 22.5 °F 14.0 °F 48% 30.33 in 10.0 mi East 12.7 mph 16.1 mph N/A   Clear
8:15 AM 32.0 °F 23.6 °F 14.0 °F 48% 30.33 in 10.0 mi East 10.4 mph 17.3 mph N/A   Clear
8:35 AM 32.0 °F 24.8 °F 14.0 °F 48% 30.33 in 10.0 mi East 8.1 mph - N/A   Scattered Clouds
8:55 AM 32.0 °F 24.2 °F 14.0 °F 48% 30.34 in 10.0 mi East 9.2 mph 17.3 mph N/A   Scattered Clouds
9:15 AM 32.0 °F 23.6 °F 14.0 °F 48% 30.33 in 10.0 mi ESE 10.4 mph 17.3 mph N/A   Clear
9:35 AM 32.0 °F 23.6 °F 14.0 °F 48% 30.33 in 10.0 mi East 10.4 mph - N/A   Clear
9:55 AM 32.0 °F 23.6 °F 14.0 °F 48% 30.33 in 10.0 mi ESE 10.4 mph - N/A   Partly Cloudy
10:15 AM 32.0 °F 22.5 °F 14.0 °F 48% 30.31 in 10.0 mi ESE 12.7 mph 20.7 mph N/A   Partly Cloudy
10:35 AM 33.8 °F 24.3 °F 14.0 °F 44% 30.30 in 10.0 mi East 13.8 mph 23.0 mph N/A   Scattered Clouds
10:55 AM 33.8 °F 23.9 °F 17.6 °F 52% 30.30 in 10.0 mi ESE 15.0 mph 19.6 mph N/A   Partly Cloudy
11:15 AM 33.8 °F 24.8 °F 19.4 °F 56% 30.29 in 10.0 mi ESE 12.7 mph 21.9 mph N/A   Clear
11:35 AM 33.8 °F 24.8 °F 19.4 °F 56% 30.29 in 10.0 mi ESE 12.7 mph - N/A   Scattered Clouds
11:55 AM 33.8 °F 23.9 °F 21.2 °F 60% 30.27 in 10.0 mi ESE 15.0 mph 20.7 mph N/A   Partly Cloudy
12:15 PM 35.6 °F 27.1 °F 21.2 °F 56% 30.26 in 10.0 mi ESE 12.7 mph 24.2 mph N/A   Scattered Clouds
12:35 PM 35.6 °F 27.1 °F 21.2 °F 56% 30.24 in 10.0 mi ESE 12.7 mph 25.3 mph N/A   Mostly Cloudy
12:55 PM 35.6 °F 26.6 °F 23.0 °F 60% 30.24 in 10.0 mi ESE 13.8 mph 24.2 mph N/A   Mostly Cloudy
1:15 PM 35.6 °F 26.2 °F 23.0 °F 60% 30.23 in 10.0 mi ESE 15.0 mph 19.6 mph N/A   Overcast
1:35 PM 35.6 °F 29.2 °F 23.0 °F 60% 30.21 in 10.0 mi ESE 8.1 mph 17.3 mph N/A   Overcast
1:55 PM 35.6 °F 27.5 °F 23.0 °F 60% 30.21 in 10.0 mi East 11.5 mph 19.6 mph N/A   Overcast
2:15 PM 35.6 °F 29.2 °F 24.8 °F 65% 30.20 in 10.0 mi ESE 8.1 mph 18.4 mph N/A   Overcast
2:35 PM 35.6 °F 29.9 °F 26.6 °F 70% 30.20 in 10.0 mi ESE 6.9 mph 23.0 mph N/A   Overcast
3:15 PM 35.6 °F 27.5 °F 32.0 °F 87% 30.16 in 3.0 mi ESE 11.5 mph - N/A   Haze
3:35 PM 35.6 °F 27.1 °F 32.0 °F 87% 30.14 in 2.5 mi ESE 12.7 mph 20.7 mph N/A   Overcast
3:55 PM 33.8 °F 24.3 °F 32.0 °F 93% 30.12 in 3.0 mi East 13.8 mph - N/A   Overcast
4:15 PM 33.8 °F 24.8 °F 32.0 °F 93% 30.10 in 5.0 mi East 12.7 mph 27.6 mph N/A   Overcast
4:35 PM 33.8 °F 22.5 °F 32.0 °F 93% 30.09 in 4.0 mi East 19.6 mph 27.6 mph N/A   Overcast
4:55 PM 33.8 °F 25.3 °F 33.8 °F 100% 30.10 in 1.5 mi East 11.5 mph 17.3 mph 0.01 in   Overcast
5:15 PM 33.8 °F 23.5 °F 33.8 °F 100% 30.08 in 1.2 mi East 16.1 mph 24.2 mph 0.01 in   Overcast
5:35 PM 33.8 °F 24.3 °F 33.8 °F 100% 30.06 in 1.5 mi East 13.8 mph 23.0 mph 0.06 in Snow Light Snow
5:55 PM 33.8 °F 23.2 °F 33.8 °F 100% 30.06 in 2.5 mi East 17.3 mph 21.9 mph 0.12 in Snow Light Snow
6:15 PM 33.8 °F 23.9 °F 33.8 °F 100% 30.05 in 2.0 mi East 15.0 mph 24.2 mph 0.02 in Rain Light Rain
6:35 PM 33.8 °F 27.0 °F 33.8 °F 100% 30.06 in 2.0 mi ENE 8.1 mph 17.3 mph 0.05 in   Overcast
6:55 PM 33.8 °F 25.8 °F 33.8 °F 100% 30.05 in 1.2 mi East 10.4 mph 19.6 mph 0.09 in   Overcast
7:15 PM 33.8 °F 23.9 °F 33.8 °F 100% 30.04 in 1.8 mi East 15.0 mph 20.7 mph 0.04 in Rain Rain
7:35 PM 33.8 °F 24.3 °F 33.8 °F 100% 30.03 in 3.0 mi East 13.8 mph 20.7 mph 0.07 in   Overcast
7:55 PM 33.8 °F 23.5 °F 33.8 °F 100% 30.01 in 2.5 mi East 16.1 mph 21.9 mph 0.09 in   Overcast
8:15 PM 33.8 °F 23.2 °F 33.8 °F 100% 29.99 in 2.5 mi East 17.3 mph 27.6 mph 0.02 in Rain Rain
8:35 PM 33.8 °F 24.8 °F 33.8 °F 100% 29.99 in 2.5 mi ENE 12.7 mph 23.0 mph 0.07 in Rain Rain
8:55 PM 33.8 °F 23.2 °F 33.8 °F 100% 29.99 in 3.0 mi East 17.3 mph 23.0 mph 0.11 in Rain Light Rain
9:15 PM 33.8 °F 29.6 °F 33.8 °F 100% 30.00 in 4.0 mi ENE 4.6 mph 18.4 mph 0.01 in Rain Light Rain
9:35 PM 33.8 °F 23.9 °F 33.8 °F 100% 29.99 in 3.0 mi East 15.0 mph 23.0 mph 0.05 in Rain Rain
9:55 PM 33.8 °F 26.4 °F 33.8 °F 100% 29.97 in 5.0 mi ENE 9.2 mph 23.0 mph 0.09 in   Overcast
10:15 PM 33.8 °F 25.8 °F 33.8 °F 100% 29.97 in 4.0 mi ENE 10.4 mph 20.7 mph 0.01 in Rain Light Rain
10:35 PM 33.8 °F 25.3 °F 33.8 °F 100% 29.94 in 5.0 mi ENE 11.5 mph 26.5 mph 0.03 in Rain Light Rain
10:55 PM 33.8 °F 27.0 °F 33.8 °F 100% 29.92 in 5.0 mi ENE 8.1 mph 19.6 mph 0.05 in Rain Light Rain
11:15 PM 33.8 °F 29.6 °F 33.8 °F 100% 29.92 in 7.0 mi ENE 4.6 mph - N/A Rain Light Rain
11:35 PM 33.8 °F 28.6 °F 33.8 °F 100% 29.91 in 3.0 mi NE 5.8 mph - 0.01 in Rain Light Rain
11:55 PM 33.8 °F 28.6 °F 33.8 °F 100% 29.89 in 3.0 mi ENE 5.8 mph - 0.02 in   Overcast